Regional Weather Roundup
Issued by NWS

Home | Current Version | Previous Version | Text Only | Print | Product List | Glossary On
Versions: 1 2 3 4 5 6 7 8 9 10 11 12 13 14 15 16 17 18 19 20 21 22 23 24 25 26 27 28 29 30 31 32 33 34 35 36 37 38 39 40 41 42 43 44 45 46 47 48 49 50
000
ASUS45 KCYS 191610
RWRWY

WYOMING REGIONAL WEATHER ROUNDUP
NATIONAL WEATHER SERVICE CHEYENNE WY
900 AM MST FRI DEC 19 2014

NOTE:  "FAIR" INDICATES FEW OR NO CLOUDS BELOW 12,000 FEET
WITH NO SIGNIFICANT WEATHER AND/OR OBSTRUCTIONS TO VISIBILITY.

WYZ001-191700-
YELLOWSTONE NATIONAL PARK

CITY           SKY/WX    TMP DP  RH WIND       PRES   REMARKS
LK YELLOWSTONE   N/A     24  21  88 CALM      30.07S
W YELLOWSTONE  NOT AVBL

$$
WYZ002>013-054>058-071-098>099-191700-
NORTHERN WYOMING

CITY           SKY/WX    TMP DP  RH WIND       PRES   REMARKS
JACKSON        MOCLDY    27  25  93 CALM      30.10R
CODY           FAIR      36  23  60 SW10      29.96R WCI  28
GREYBULL       FAIR       9   6  88 CALM      30.05S
WORLAND        FAIR       2  -3  80 CALM      30.04S
SHERIDAN       FAIR      27  14  58 CALM      29.95S
BUFFALO        FAIR      33  15  47 N6        29.96F WCI  28
GILLETTE       FAIR      31  16  54 SW12      29.96S WCI  22
HULETT           N/A    N/A N/A N/A MISG        N/A
NEWCASTLE      FAIR      23  19  86 CALM      30.02S

$$
WYZ014>020-022>026-101>103-191700-
CENTRAL WYOMING

CITY           SKY/WX    TMP DP  RH WIND       PRES   REMARKS
BIG PINEY      MOCLDY    14  10  84 CALM      30.13S
PINEDALE       CLOUDY    21  19  93 CALM      30.13S
DUBOIS         CLOUDY    30  19  64 NW14G25   30.01S WCI  20
LANDER         FAIR       0  -5  79 NW3       30.05S HAZE
RIVERTON       FOG        5   2  87 SE3       30.06F VSB 1/4
CASPER         FAIR      25  16  68 SW22      30.04S WCI  10
DOUGLAS        FAIR      26  17  68 NW8       30.04S WCI  18

$$
WYZ021-027>030-104>119-191700-
SOUTHERN WYOMING

CITY           SKY/WX    TMP DP  RH WIND       PRES   REMARKS
EVANSTON       PTSUNNY   24  21  88 SW12      30.16R WCI  13
KEMMERER       FAIR      27  21  80 SW5       30.14R WCI  21
FORT BRIDGER   PTSUNNY   28  21  73 SW10      30.17S WCI  19
ROCK SPRINGS   CLOUDY    25  17  72 SW17      30.13F WCI  12
DIXON          CLOUDY   N/A N/A N/A SW10      30.24R
RAWLINS        FAIR      23  17  78 SW17      30.11R WCI   9
SARATOGA       FAIR      23  18  80 SW14      30.14R WCI  11
LARAMIE        FAIR      24  14  65 SW21      30.06S WCI   9
CHEYENNE       FAIR      32  14  47 W20G29    30.05S WCI  20
TORRINGTON     FAIR     N/A N/A N/A CALM      30.04S
PINE BLUFFS    FAIR      34  19  55 W14       30.07S WCI  24

$$


USA.gov is the U.S. government's official web portal to all federal, state and local government web resources and services.